Hourly Data Report for October 21, 2016

All times are specified in Local Standard Time (LST). Add 1 hour to adjust for Daylight Saving Time where and when it is observed.

FREDERICTON
NEW BRUNSWICK

45°52'08.000" N
66°32'14.000" W
20.70 m
8101505
71700
YFC

Download Data

Hourly Data (October 2016)
Hourly Data Report for October 21, 2016
Temp Definition
°C
Dew Point Temp Definition
°C
Rel Hum Definition
%
Wind Dir Definition
10's deg

Wind Spd Definition
km/h
Visibility Definition
km
Stn Press Definition
kPa
Hmdx Definition


Wind Chill Definition


Weather Definition


TIME
00:00 Legend Double Dagger 9.7 7.7 87 8 8 16.1 102.16     LegendNANA
01:00 Legend Double Dagger 9.9 6.7 80 8 8 16.1 102.08     LegendNANA
02:00 Legend Double Dagger 9.5 6.8 83 2 8 16.1 102.06     LegendNANA
03:00 Legend Double Dagger 9.3 6.5 82 6 11 16.1 102.03     LegendNANA
04:00 Legend Double Dagger 9.7 7.1 84 8 11 2.0 101.85     Haze
05:00 Legend Double Dagger 9.2 7.0 86 5 9 16.1 101.82     LegendNANA
06:00 Legend Double Dagger 10.8 7.9 82 10 13 16.1 101.73     LegendNANA
07:00 Legend Double Dagger 10.9 8.7 86 10 17 16.1 101.60     Rain
08:00 Legend Double Dagger 10.5 9.3 92 7 11 9.7 101.54     Moderate Rain,Fog
09:00 Legend Double Dagger 9.7 9.4 98 2 11 3.2 101.51     Rain,Fog
10:00 Legend Double Dagger 9.8 9.5 98 6 11 8.1 101.43     Rain,Fog
11:00 Legend Double Dagger 10.2 9.9 98 5 11 2.4 101.34     Rain,Fog
12:00 Legend Double Dagger 10.8 10.5 98 5 8 2.4 101.26     Moderate Rain,Fog
13:00 Legend Double Dagger 11.4 11.1 98 7 9 6.4 101.17     Fog
14:00 Legend Double Dagger 12.2 12.1 99 5 5 4.8 101.08     Fog
15:00 Legend Double Dagger 13.4 13.3 99 7 8 2.4 101.01     Fog
16:00 Legend Double Dagger 13.8 13.7 99 5 5 1.6 100.94     Rain,Fog
17:00 Legend Double Dagger 14.5 14.4 99 7 5 4.0 100.87     Fog
18:00 Legend Double Dagger 15.1 15.0 99 7 8 8.1 100.81     Fog
19:00 Legend Double Dagger 15.8 15.5 98 6 9 4.8 100.73     Fog
20:00 Legend Double Dagger 15.8 15.7 99 8 8 4.0 100.71     Fog
21:00 Legend Double Dagger 16.8 16.3 97 10 9 16.1 100.62     LegendNANA
22:00 Legend Double Dagger 16.5 16.0 97 7 11 16.1 100.52     LegendNANA
23:00 Legend Double Dagger 16.2 15.7 97 6 13 16.1 100.37     LegendNANA

Notes on Data Quality.

Legend

  • E = Estimated
  • M = Missing
  • NA = Not Available
  • ‡ = Partner data that is not subject to review by the National Climate Archives
Date modified: